STARLINK-5192, 54074

Orbit data source: Space-Track

STARLINK-5192, 54074 is a payload satellite owned by SpaceX/Seattle (US) in LEO that was launched on Thu, 20 Oct 2022 UTC via an FALCON 9 launch vehicle from the Air Force Eastern Test Range (AFETR). Payload-class satellites include a variety of spacecraft equipped with specific instruments for various scientific and technological missions. These include communications satellites like Starlink; space stations such as the ISS; scientific satellites like the Hubble; Earth observation satellites from companies like Planet Labs, Umbra, and HawkEye 360; GPS; miniature CubeSats for education and research; and military/defense satellites.

Loading next visibility...
Identifier
54074, 2022-136Z
Orbit
LEO
Last TLE update
21 hours ago
Origin
Manufacturer
SpaceX/Seattle
Mission
Operational Commercial Communications
Bus & Motor
STARLINK, Unknown motor
Mass
305 kg wet, ~290 kg dry
Launch date (UTC)
2022-10-20 (3 years ago)
Launch vehicle
FALCON 9
Launch site
Air Force Eastern Test Range (AFETR)
Object type
Payload
Rocket body
Debris
Shape & HBR
Box + 1 Pan, 8.86 m
Radar Cross Section
13.562 m², Large (>1 m²)

Expand to show TLE details & history

TLE from 21 hours ago
0 STARLINK-5192
1 54074U 22136Z   25181.87310718 -.00000487  00000-0 -12507-4 0  9996
2 54074  53.2186  34.1846 0001508  89.4220 270.6945 15.08837809148838
Epoch: 2025-06-30T20:57Z
TLE epoch observation values (Epoch: 2025-06-30T20:57:16.46Z)
Latitude
-0.00001°
Longitude
160.68934°
Altitude
540.635 km
Speed
7.593 km/s
True Right ascension
02h 16m 44s
True Declination
0° 00' 00"
Sunlit
Object was in daylight at epoch
Visualization orbit readout
Latitude
46.33994°
Longitude
-74.45137°
Altitude
543.796 km
Speed
7.597 km/s
Apparent Right ascension
14h 15m 32s
Apparent Declination
9° 06' 18"
Sunlit
Object is in daylight
Visualization observer readout
Local Sidereal Time
05:47:37
Azimuth
57.501° ENE
Elevation
-20.733°
Doppler factor
1
Orbital elements
Apogee altitude
541.038 km
Perigee altitude
538.952 km
Semi-major axis
6,918.132 km
Eccentricity
0.00015
Inclination
53.2186°
RAAN
34.1846°
Arg. of periapsis
89.422°
True anomaly
Unknown
Mean anomaly
270.6945°
Eccentric anomaly
Unknown
Mean motion
3.7719 °/min
Orbital period
95.44 mins
BSTAR
-0.000012507
Loading maneuver chart data...
Loading SW <> Apogee altitude chart data...
Loading historical data...
Loading historical data...
Loading historical data...
Loading historical data...
Loading historical data...
Loading historical data...
Loading historical data...

STARLINK-5192 Visibility forecast

Observer location: undefined°, undefined°

Span
Click to sort rows by Start time (UTC) header in descending order
Start Az.
Max El. time (UTC)
Max El. Az.
Max El.
End time (UTC)
End Az.
5 mins2025-07-01 22:52:54.567Z335.282° NNW2025-07-01 22:54:54.567Z25.612° NE32.185°2025-07-01 22:57:54.567Z96.277° ESE
5 mins2025-07-02 00:31:54.567Z280.603° WNW2025-07-02 00:33:54.567Z241.206° WSW26.168°2025-07-02 00:36:54.567Z175.621° S
6 mins2025-07-02 16:02:54.567Z203.504° SW2025-07-02 16:05:54.567Z119.96° SE36.616°2025-07-02 16:08:54.567Z62.381° ENE
5 mins2025-07-02 17:42:54.567Z284.086° WNW2025-07-02 17:44:54.567Z325.948° NNW25.362°2025-07-02 17:47:54.567Z26.611° NE
|